Weather Roundup
Issued by NWS Corpus Christi, TX

Home | Current Version | Previous Version | Text Only | Print | Product List | Glossary Off
Versions: 1 2 3 4 5 6 7 8 9 10 11 12 13 14 15 16 17 18 19 20 21 22 23 24 25 26 27 28 29 30 31 32 33 34 35 36 37 38 39 40 41 42 43 44 45 46 47 48 49 50

651
ASUS44 KCRP 222211
HRRCRP

SOUTH TEXAS REGIONAL WEATHER ROUNDUP
NATIONAL WEATHER SERVICE CORPUS CHRISTI TX
400 PM CST THU FEB 22 2018


TXZ229>244-222300-
...CORPUS CHRISTI AREA OBSERVATIONS...

CITY           SKY/WX    TMP DP  RH WIND       PRES   REMARKS
CORPUS CHRISTI CLOUDY    55  54  96 N9        30.13F
NAS CORPUS CHR DRIZZLE   58  56  93 N9        30.13S FOG
ROCKPORT       CLOUDY    58  55  90 N8        30.13S FOG
KINGSVILLE ARP CLOUDY    55  55 100 N6        30.14S
KINGSVILLE NAS CLOUDY    54  52  93 N9        30.14R FOG
ALICE          CLOUDY    54  50  86 N8        30.13F
$$

...VICTORIA AREA OBSERVATIONS...

CITY           SKY/WX    TMP DP  RH WIND       PRES   REMARKS
PORT LAVACA    CLOUDY    55  54  95 N9        30.15S FOG
VICTORIA       CLOUDY    53  50  89 N7        30.15F FOG
BEEVILLE       CLOUDY    50  49  94 N7        30.14F
PLEASANTON     CLOUDY    49  47  93 NE6       30.17S FOG
SAN ANTONIO    CLOUDY    49  46  90 N8        30.16F
$$

...LAREDO AREA OBSERVATIONS...

CITY           SKY/WX    TMP DP  RH WIND       PRES   REMARKS
LAREDO         CLOUDY    57  50  77 NE6       30.13F
COTULLA        CLOUDY    53  49  86 E7        30.14F
DEL RIO        CLOUDY    55  44  66 CALM      30.12S
MCALLEN        CLOUDY    61  56  83 VRB3      30.12F
HEBBRONVILLE   CLOUDY    54  51  90 NE5       30.13S
$$

...OTHER TEXAS OBSERVATIONS...

CITY           SKY/WX    TMP DP  RH WIND       PRES   REMARKS
BROWNSVILLE    FAIR      73  61  65 VRB5      30.10F
HOUSTON        LGT RAIN  68  67  96 CALM      30.14S FOG
COL. STATION   FOG       45  45 100 NW10      30.19R VSB 3/4
AUSTIN         CLOUDY    43  43 100 N9        30.20S
WACO           CLOUDY    40  38  93 NW8       30.22S
FORT WORTH     CLOUDY    38  36  92 NW12      30.21R WCI  30
WICHITA FALLS  CLOUDY    33  30  88 NW5       30.21F
LUBBOCK        CLOUDY    46  33  60 S10       30.06F
EL PASO        MOSUNNY   62  20  19 W23G31    30.05F
$$

...MARINE OBSERVATIONS...

STATION/POSITION TIME  SKY/WX   TEMP    WIND        PRES    VSBY  WAVE   SWELL
                                AIR SEA DIR/SP/G                  HT/PER HT/PER
                 (UTC)          (F)     (DEG/KT/KT) (MB)    (MI)  (FT/S) (FT/S)
PORT ARANSAS     NOT AVBL
BUOY 90 E PORT A 2150            74 73  130/ 14/ 17 1019.8F         4/ 8   3/ 8
BUOY 200 E PT IS 2150            74 74  120/  8/ 10 1020.9S         6/ 7   5/ 7
BUOY 15 E GALVES 2050            67 63  120/ 10/ 12 1021.0          3/ 7   2/ 7
$$




USA.gov is the U.S. government's official web portal to all federal, state and local government web resources and services.